time, Switch, Flow(0), Analog(2)
yyyy/mm/dd HH:MM:SS.fff, True=FILTERED|False=TOTAL, L/min, V
2023/06/10 15:00:03.746, True, 3.972, 0.139391
2023/06/10 15:00:04.242, True, 2.696, 0.137255
2023/06/10 15:00:04.746, True, 1.326, 0.138323
2023/06/10 15:00:05.250, True, 0.995, 0.138018
2023/06/10 15:00:05.746, True, 0.674, 0.136950
2023/06/10 15:00:06.250, True, 0.663, 0.137255
2023/06/10 15:00:06.754, True, 0.995, 0.136950
2023/06/10 15:00:07.250, True, 0.674, 0.138399
2023/06/10 15:00:07.754, True, 0.664, 0.136034
2023/06/10 15:00:08.258, True, 0.993, 0.141299
2023/06/10 15:00:08.754, True, 0.674, 0.139849
2023/06/10 15:00:09.258, True, 0.663, 0.135348
2023/06/10 15:00:09.762, True, 0.663, 0.139620
2023/06/10 15:00:10.258, True, 0.675, 0.138018
2023/06/10 15:00:10.761, True, 0.662, 0.139849
2023/06/10 15:00:11.266, True, 0.996, 0.137636
2023/06/10 15:00:11.762, True, 0.673, 0.137789
2023/06/10 15:00:12.266, True, 0.663, 0.136187
2023/06/10 15:00:12.769, True, 0.663, 0.138628
2023/06/10 15:00:13.266, True, 0.674, 0.137636
2023/06/10 15:00:13.769, True, 0.663, 0.138552
2023/06/10 15:00:14.274, True, 0.663, 0.136110
2023/06/10 15:00:14.770, True, 1.011, 0.136568
2023/06/10 15:00:15.274, True, 0.663, 0.137255
2023/06/10 15:00:15.777, True, 0.664, 0.140307
2023/06/10 15:00:16.274, True, 0.673, 0.138857
2023/06/10 15:00:16.778, True, 0.663, 0.135424
2023/06/10 15:00:17.282, True, 0.995, 0.138094
2023/06/10 15:00:17.778, True, 0.674, 0.138170
2023/06/10 15:00:18.282, True, 0.663, 0.135958
2023/06/10 15:00:18.786, True, 0.663, 0.136721
2023/06/10 15:00:19.282, True, 0.674, 0.138476
2023/06/10 15:00:19.785, True, 0.994, 0.138476
2023/06/10 15:00:20.282, True, 0.675, 0.137942
2023/06/10 15:00:20.786, True, 0.662, 0.137560
2023/06/10 15:00:21.290, True, 0.663, 0.140688
2023/06/10 15:00:21.786, True, 0.674, 0.136797
2023/06/10 15:00:22.290, True, 0.995, 0.136416
2023/06/10 15:00:22.794, True, 0.663, 0.137484
2023/06/10 15:00:23.290, True, 0.674, 0.137407
2023/06/10 15:00:23.794, True, 0.663, 0.135500
2023/06/10 15:00:24.298, True, 0.663, 0.138094
2023/06/10 15:00:24.793, True, 1.011, 0.138476
2023/06/10 15:00:25.298, True, 0.663, 0.137102
2023/06/10 15:00:25.802, True, 0.663, 0.140002
2023/06/10 15:00:26.297, True, 1.012, 0.137102
2023/06/10 15:00:26.802, True, 0.663, 0.138628
2023/06/10 15:00:27.306, True, 0.663, 0.138552
2023/06/10 15:00:27.802, True, 0.674, 0.139849
2023/06/10 15:00:28.305, True, 0.663, 0.139162
2023/06/10 15:00:28.809, True, 0.995, 0.137636
2023/06/10 15:00:29.313, True, 0.664, 0.137865
2023/06/10 15:00:29.810, True, 0.674, 0.138247
2023/06/10 15:00:30.314, True, 0.663, 0.136187
2023/06/10 15:00:30.817, True, 0.662, 0.136492
2023/06/10 15:00:31.313, True, 0.674, 0.137484
2023/06/10 15:00:31.818, True, 0.995, 0.138476
2023/06/10 15:00:32.314, True, 0.674, 0.137407
2023/06/10 15:00:32.817, True, 0.663, 0.138247
2023/06/10 15:00:33.321, True, 0.663, 0.138781
2023/06/10 15:00:33.825, True, 0.663, 0.139620
2023/06/10 15:00:34.321, True, 0.674, 0.136873
2023/06/10 15:00:34.825, True, 0.663, 0.136797
2023/06/10 15:00:35.321, True, 1.011, 0.137636
2023/06/10 15:00:35.825, True, 0.663, 0.138170
2023/06/10 15:00:36.329, True, 0.663, 0.136492
2023/06/10 15:00:36.825, True, 0.674, 0.135653
2023/06/10 15:00:37.329, True, 0.663, 0.135424
2023/06/10 15:00:37.833, True, 0.663, 0.136492
2023/06/10 15:00:38.329, True, 0.674, 0.139773
2023/06/10 15:00:38.833, True, 0.995, 0.136568
2023/06/10 15:00:39.337, True, 0.664, 0.137636
2023/06/10 15:00:39.833, True, 0.673, 0.137713
2023/06/10 15:00:40.336, True, 0.663, 0.137255
2023/06/10 15:00:40.841, True, 0.997, 0.139162
2023/06/10 15:00:41.337, True, 0.673, 0.135271
2023/06/10 15:00:41.841, True, 0.663, 0.137255
2023/06/10 15:00:42.345, True, 0.663, 0.137484
2023/06/10 15:00:42.841, True, 1.011, 0.137942
2023/06/10 15:00:43.345, True, 0.663, 0.136873
2023/06/10 15:00:43.849, True, 0.664, 0.137179
2023/06/10 15:00:44.345, True, 0.673, 0.138781
2023/06/10 15:00:44.849, True, 0.663, 0.136721
2023/06/10 15:00:45.353, True, 0.994, 0.136263
2023/06/10 15:00:45.849, True, 0.674, 0.137179
2023/06/10 15:00:46.353, True, 0.663, 0.137331
2023/06/10 15:00:46.857, True, 0.663, 0.137560
2023/06/10 15:00:47.361, True, 0.664, 0.140002
2023/06/10 15:00:47.857, True, 0.673, 0.138552
2023/06/10 15:00:48.361, True, 0.663, 0.137789
2023/06/10 15:00:48.865, True, 0.995, 0.136263
2023/06/10 15:00:49.361, True, 0.674, 0.137026
2023/06/10 15:00:49.865, True, 0.663, 0.137026
2023/06/10 15:00:50.369, True, 0.663, 0.137407
2023/06/10 15:00:50.865, True, 0.674, 0.138857
2023/06/10 15:00:51.369, True, 0.995, 0.137713
2023/06/10 15:00:51.873, True, 0.663, 0.138552
2023/06/10 15:00:52.369, True, 0.674, 0.138476
2023/06/10 15:00:52.873, True, 0.663, 0.137865
2023/06/10 15:00:53.377, True, 0.996, 0.138628
2023/06/10 15:00:53.881, True, 0.663, 0.137560
2023/06/10 15:00:54.377, True, 0.674, 0.137102
2023/06/10 15:00:54.881, True, 0.664, 0.137331
2023/06/10 15:00:55.385, True, 0.663, 0.138094
2023/06/10 15:00:55.881, True, 1.011, 0.135805
2023/06/10 15:00:56.385, True, 0.663, 0.137331
2023/06/10 15:00:56.881, True, 0.674, 0.137560
2023/06/10 15:00:57.385, True, 0.663, 0.137942
2023/06/10 15:00:57.889, True, 0.663, 0.137636
2023/06/10 15:00:58.385, True, 1.011, 0.138018
2023/06/10 15:00:58.889, True, 0.663, 0.137331
2023/06/10 15:00:59.393, True, 0.663, 0.136187
2023/06/10 15:00:59.889, True, 0.674, 0.137865
2023/06/10 15:01:00.393, True, 0.663, 0.136645
2023/06/10 15:01:00.889, True, 1.011, 0.135958
2023/06/10 15:01:01.393, True, 0.663, 0.137636
2023/06/10 15:01:01.897, True, 0.663, 0.137407
2023/06/10 15:01:02.401, True, 0.663, 0.135958
2023/06/10 15:01:02.898, True, 0.674, 0.137102
2023/06/10 15:01:03.401, True, 0.664, 0.137789
2023/06/10 15:01:03.905, True, 0.993, 0.136797
2023/06/10 15:01:04.401, True, 0.674, 0.137102
2023/06/10 15:01:04.905, True, 0.663, 0.136873
2023/06/10 15:01:05.401, True, 0.674, 0.136339
2023/06/10 15:01:05.905, True, 0.663, 0.136339
2023/06/10 15:01:06.409, True, 0.995, 0.139086
2023/06/10 15:01:06.913, True, 0.663, 0.139086
2023/06/10 15:01:07.409, True, 0.674, 0.138399
2023/06/10 15:01:07.913, True, 0.663, 0.137865
2023/06/10 15:01:08.417, True, 0.995, 0.137026
2023/06/10 15:01:08.913, True, 0.674, 0.137255
2023/06/10 15:01:09.417, True, 0.663, 0.136797
2023/06/10 15:01:09.913, True, 0.674, 0.136492
2023/06/10 15:01:10.417, True, 0.663, 0.139696
2023/06/10 15:01:10.921, True, 0.663, 0.138933
2023/06/10 15:01:11.425, True, 0.663, 0.138323
2023/06/10 15:01:11.921, True, 1.011, 0.139162
2023/06/10 15:01:12.425, True, 0.663, 0.136797
2023/06/10 15:01:12.921, True, 0.674, 0.136492
2023/06/10 15:01:13.425, True, 0.663, 0.137789
2023/06/10 15:01:13.929, True, 0.995, 0.138476
2023/06/10 15:01:14.433, True, 0.664, 0.138247
2023/06/10 15:01:14.929, True, 0.673, 0.137713
2023/06/10 15:01:15.433, True, 0.663, 0.140841
2023/06/10 15:01:15.937, True, 0.664, 0.136645
2023/06/10 15:01:16.433, True, 0.673, 0.140612
2023/06/10 15:01:16.937, True, 0.663, 0.140764
2023/06/10 15:01:17.433, True, 1.011, 0.141070
2023/06/10 15:01:17.937, True, 0.664, 0.139849
2023/06/10 15:01:18.441, True, 0.662, 0.139544
2023/06/10 15:01:18.945, True, 0.663, 0.139696
2023/06/10 15:01:19.441, True, 1.011, 0.142138
2023/06/10 15:01:19.945, True, 0.663, 0.141070
2023/06/10 15:01:20.449, True, 0.663, 0.141299
2023/06/10 15:01:20.945, True, 0.674, 0.141375
2023/06/10 15:01:21.449, True, 0.663, 0.140841
2023/06/10 15:01:21.953, True, 0.663, 0.140917
2023/06/10 15:01:22.449, True, 0.675, 0.140154
2023/06/10 15:01:22.953, True, 0.994, 0.141909
2023/06/10 15:01:23.457, True, 0.663, 0.141680
2023/06/10 15:01:23.953, True, 0.674, 0.140536
2023/06/10 15:01:24.457, True, 0.663, 0.142596
2023/06/10 15:01:24.961, True, 0.663, 0.143359
2023/06/10 15:01:25.457, True, 0.674, 0.142977
2023/06/10 15:01:25.961, True, 0.996, 0.142290
2023/06/10 15:01:26.465, True, 0.662, 0.141070
2023/06/10 15:01:26.961, True, 0.674, 0.141756
2023/06/10 15:01:27.465, True, 0.664, 0.142748
2023/06/10 15:01:27.969, True, 0.663, 0.144121
2023/06/10 15:01:28.465, True, 0.673, 0.142519
2023/06/10 15:01:28.969, True, 0.663, 0.143435
2023/06/10 15:01:29.473, True, 0.663, 0.143587
2023/06/10 15:01:29.969, True, 1.011, 0.144121
2023/06/10 15:01:30.473, True, 0.663, 0.143740
2023/06/10 15:01:30.977, True, 0.663, 0.146792
2023/06/10 15:01:31.473, True, 0.674, 0.145342
2023/06/10 15:01:31.977, True, 0.663, 0.144427
2023/06/10 15:01:32.482, True, 0.995, 0.145190
2023/06/10 15:01:32.977, True, 0.675, 0.146792
2023/06/10 15:01:33.481, True, 0.662, 0.145342
2023/06/10 15:01:33.985, True, 0.663, 0.146639
2023/06/10 15:01:34.481, True, 0.674, 0.147784
2023/06/10 15:01:34.985, True, 0.663, 0.149615
2023/06/10 15:01:35.489, True, 0.663, 0.148241
2023/06/10 15:01:35.985, True, 0.674, 0.147478
2023/06/10 15:01:36.489, True, 0.994, 0.147936
2023/06/10 15:01:36.993, True, 0.663, 0.150301
2023/06/10 15:01:37.497, True, 0.663, 0.147097
2023/06/10 15:01:37.993, True, 0.674, 0.149386
2023/06/10 15:01:38.497, True, 0.663, 0.150378
2023/06/10 15:01:38.993, True, 0.674, 0.146868
2023/06/10 15:01:39.497, True, 0.995, 0.149538
2023/06/10 15:01:40.002, True, 0.663, 0.148241
2023/06/10 15:01:40.497, True, 0.674, 0.147173
2023/06/10 15:01:41.002, True, 0.663, 0.149691
2023/06/10 15:01:41.505, True, 0.663, 0.148089
2023/06/10 15:01:42.002, True, 0.674, 0.150683
2023/06/10 15:01:42.505, True, 0.995, 0.147021
2023/06/10 15:01:43.009, True, 0.663, 0.149538
2023/06/10 15:01:43.505, True, 0.674, 0.150301
2023/06/10 15:01:44.009, True, 0.663, 0.146334
2023/06/10 15:01:44.513, True, 0.663, 0.149920
2023/06/10 15:01:45.009, True, 0.674, 0.149538
2023/06/10 15:01:45.513, True, 0.663, 0.148089
2023/06/10 15:01:46.009, True, 0.674, 0.148394
2023/06/10 15:01:46.513, True, 0.663, 0.150072
2023/06/10 15:01:47.017, True, 0.664, 0.148699
2023/06/10 15:01:47.521, True, 0.662, 0.150378
2023/06/10 15:01:48.017, True, 0.674, 0.149767
2023/06/10 15:01:48.521, True, 0.663, 0.151217
2023/06/10 15:01:49.017, True, 1.011, 0.150454
2023/06/10 15:01:49.521, True, 0.663, 0.150301
2023/06/10 15:01:50.025, True, 0.663, 0.151217
2023/06/10 15:01:50.529, True, 0.663, 0.152972
2023/06/10 15:01:51.025, True, 0.674, 0.153277
2023/06/10 15:01:51.529, True, 0.663, 0.152590
2023/06/10 15:01:52.034, True, 0.995, 0.153658
2023/06/10 15:01:52.529, True, 0.674, 0.150530
2023/06/10 15:01:53.033, True, 0.663, 0.152972
2023/06/10 15:01:53.537, True, 0.663, 0.152743
2023/06/10 15:01:54.033, True, 0.674, 0.150530
2023/06/10 15:01:54.537, True, 0.995, 0.151751
2023/06/10 15:01:55.041, True, 0.664, 0.148928
2023/06/10 15:01:55.537, True, 0.673, 0.153124
2023/06/10 15:01:56.041, True, 0.663, 0.152819
2023/06/10 15:01:56.537, True, 0.674, 0.152895
2023/06/10 15:01:57.041, True, 0.663, 0.151141
2023/06/10 15:01:57.545, True, 0.663, 0.153582
2023/06/10 15:01:58.041, True, 0.674, 0.153201
2023/06/10 15:01:58.545, True, 0.663, 0.152056
2023/06/10 15:01:59.049, True, 0.995, 0.153124
2023/06/10 15:01:59.545, True, 0.674, 0.151369
2023/06/10 15:02:00.049, True, 0.663, 0.153201
2023/06/10 15:02:00.545, True, 0.674, 0.153658
2023/06/10 15:02:01.049, True, 0.663, 0.153506
2023/06/10 15:02:01.553, True, 0.995, 0.152819
2023/06/10 15:02:02.049, True, 0.675, 0.151522
2023/06/10 15:02:02.553, True, 0.662, 0.155566
2023/06/10 15:02:03.057, True, 0.663, 0.150988
2023/06/10 15:02:03.553, True, 0.674, 0.150607
2023/06/10 15:02:04.056, True, 0.995, 0.153506
2023/06/10 15:02:04.561, True, 0.663, 0.152285
2023/06/10 15:02:05.064, True, 0.664, 0.153048
2023/06/10 15:02:05.560, True, 0.673, 0.152590
2023/06/10 15:02:06.065, True, 0.663, 0.153964
2023/06/10 15:02:06.569, True, 0.664, 0.152895
2023/06/10 15:02:07.065, True, 1.010, 0.154192
2023/06/10 15:02:07.569, True, 0.663, 0.153277
2023/06/10 15:02:08.073, True, 0.663, 0.150988
2023/06/10 15:02:08.569, True, 0.675, 0.152438
2023/06/10 15:02:09.072, True, 0.662, 0.153506
2023/06/10 15:02:09.577, True, 0.995, 0.152438
2023/06/10 15:02:10.073, True, 0.674, 0.152132
2023/06/10 15:02:10.577, True, 0.664, 0.153277
2023/06/10 15:02:11.081, True, 0.663, 0.154116
2023/06/10 15:02:11.577, True, 0.674, 0.152895
2023/06/10 15:02:12.080, True, 0.995, 0.154345
2023/06/10 15:02:12.585, True, 0.664, 0.152361
2023/06/10 15:02:13.081, True, 0.673, 0.150835
2023/06/10 15:02:13.585, True, 0.664, 0.154803
2023/06/10 15:02:14.089, True, 0.663, 0.152819
2023/06/10 15:02:14.585, True, 0.674, 0.153811
2023/06/10 15:02:15.089, True, 0.663, 0.153735
2023/06/10 15:02:15.593, True, 0.663, 0.154345
2023/06/10 15:02:16.089, True, 0.673, 0.152514
2023/06/10 15:02:16.593, True, 0.663, 0.154269
2023/06/10 15:02:17.097, True, 0.995, 0.153506
2023/06/10 15:02:17.593, True, 0.675, 0.153429
2023/06/10 15:02:18.097, True, 0.662, 0.151980
2023/06/10 15:02:18.601, True, 0.664, 0.153506
2023/06/10 15:02:19.105, True, 0.662, 0.153506
2023/06/10 15:02:19.601, True, 0.675, 0.153353
2023/06/10 15:02:20.105, True, 0.663, 0.153506
2023/06/10 15:02:20.609, True, 0.662, 0.154574
2023/06/10 15:02:21.105, True, 0.674, 0.151217
2023/06/10 15:02:21.609, True, 0.995, 0.150759
2023/06/10 15:02:22.113, True, 0.663, 0.152514
2023/06/10 15:02:22.609, True, 0.674, 0.151598
2023/06/10 15:02:23.113, True, 0.663, 0.154574
2023/06/10 15:02:23.617, True, 0.663, 0.152056
2023/06/10 15:02:24.113, True, 0.674, 0.150683
2023/06/10 15:02:24.617, True, 0.995, 0.151446
2023/06/10 15:02:25.121, True, 0.663, 0.153887
2023/06/10 15:02:25.617, True, 0.674, 0.153429
2023/06/10 15:02:26.121, True, 0.664, 0.153811
2023/06/10 15:02:26.625, True, 0.663, 0.153582
2023/06/10 15:02:27.121, True, 0.674, 0.151293
2023/06/10 15:02:27.625, True, 0.664, 0.152132
2023/06/10 15:02:28.129, True, 0.994, 0.152972
2023/06/10 15:02:28.625, True, 0.674, 0.153735
2023/06/10 15:02:29.129, True, 0.663, 0.152819
2023/06/10 15:02:29.633, True, 0.663, 0.153429
2023/06/10 15:02:30.129, True, 0.674, 0.153429
2023/06/10 15:02:30.633, True, 0.663, 0.152132
2023/06/10 15:02:31.137, True, 0.663, 0.152667
2023/06/10 15:02:31.633, True, 0.674, 0.152209
2023/06/10 15:02:32.137, True, 0.995, 0.153353
2023/06/10 15:02:32.641, True, 0.664, 0.152972
2023/06/10 15:02:33.137, True, 0.673, 0.154574
2023/06/10 15:02:33.641, True, 0.663, 0.153277
2023/06/10 15:02:34.145, True, 0.663, 0.152819
2023/06/10 15:02:34.648, True, 0.996, 0.153964
2023/06/10 15:02:35.145, True, 0.673, 0.152285
2023/06/10 15:02:35.649, True, 0.664, 0.154498
2023/06/10 15:02:36.153, True, 0.662, 0.151598
2023/06/10 15:02:36.649, True, 0.674, 0.154269
2023/06/10 15:02:37.153, True, 0.663, 0.155489
2023/06/10 15:02:37.657, True, 0.995, 0.153277
2023/06/10 15:02:38.153, True, 0.675, 0.150683
2023/06/10 15:02:38.657, True, 0.662, 0.152514
2023/06/10 15:02:39.161, True, 0.663, 0.152895
2023/06/10 15:02:39.657, True, 1.011, 0.149767
2023/06/10 15:02:40.161, True, 0.663, 0.154574
2023/06/10 15:02:40.665, True, 0.664, 0.150835
2023/06/10 15:02:41.161, True, 0.673, 0.156100
2023/06/10 15:02:41.665, True, 0.663, 0.154116
2023/06/10 15:02:42.169, True, 0.663, 0.153582
2023/06/10 15:02:42.665, True, 0.674, 0.154192
2023/06/10 15:02:43.169, True, 0.663, 0.153506
2023/06/10 15:02:43.673, True, 0.995, 0.155871
2023/06/10 15:02:44.169, True, 0.674, 0.155489
2023/06/10 15:02:44.673, True, 0.663, 0.151904
2023/06/10 15:02:45.177, True, 0.663, 0.151522
2023/06/10 15:02:45.681, True, 0.664, 0.154192
2023/06/10 15:02:46.177, True, 0.673, 0.154040
2023/06/10 15:02:46.681, True, 0.995, 0.151904
2023/06/10 15:02:47.177, True, 0.674, 0.152056
2023/06/10 15:02:47.681, True, 0.663, 0.151980
2023/06/10 15:02:48.185, True, 0.995, 0.154498
2023/06/10 15:02:48.681, True, 0.674, 0.153811
2023/06/10 15:02:49.185, True, 0.663, 0.151980
2023/06/10 15:02:49.689, True, 0.663, 0.153429
2023/06/10 15:02:50.185, True, 0.674, 0.151827
2023/06/10 15:02:50.689, True, 0.663, 0.154650
2023/06/10 15:02:51.193, True, 0.995, 0.152285
2023/06/10 15:02:51.689, True, 0.674, 0.152895
2023/06/10 15:02:52.193, True, 0.663, 0.152667
2023/06/10 15:02:52.697, True, 0.664, 0.153735
2023/06/10 15:02:53.193, True, 0.673, 0.151064
2023/06/10 15:02:53.697, True, 0.663, 0.151293
2023/06/10 15:02:54.201, True, 0.663, 0.151904
2023/06/10 15:02:54.697, True, 0.674, 0.152438
2023/06/10 15:02:55.201, True, 0.664, 0.151980
2023/06/10 15:02:55.705, True, 0.663, 0.152590
2023/06/10 15:02:56.201, True, 0.673, 0.152590
2023/06/10 15:02:56.705, True, 0.995, 0.151293
2023/06/10 15:02:57.209, True, 0.663, 0.154040
2023/06/10 15:02:57.705, True, 0.674, 0.151369
2023/06/10 15:02:58.208, True, 0.663, 0.153048
2023/06/10 15:02:58.713, True, 0.995, 0.153735
2023/06/10 15:02:59.209, True, 0.674, 0.149844
2023/06/10 15:02:59.713, True, 0.663, 0.152132
2023/06/10 15:03:00.209, True, 0.674, 0.150759
2023/06/10 15:03:00.713, True, 0.663, 0.150835
2023/06/10 15:03:01.217, True, 0.663, 0.152285
2023/06/10 15:03:01.713, True, 1.011, 0.151446
2023/06/10 15:03:02.217, True, 0.663, 0.152209
2023/06/10 15:03:02.721, True, 0.663, 0.152285
2023/06/10 15:03:03.217, True, 0.674, 0.152438
2023/06/10 15:03:03.721, True, 0.663, 0.153811
2023/06/10 15:03:04.225, True, 0.663, 0.152285
2023/06/10 15:03:04.721, True, 0.674, 0.154498
2023/06/10 15:03:05.225, True, 0.663, 0.153506
2023/06/10 15:03:05.729, True, 0.995, 0.154345
2023/06/10 15:03:06.225, True, 0.337, 0.151217
2023/06/10 15:03:06.729, True, 0.995, 0.152132
2023/06/10 15:03:07.233, True, 0.663, 0.148928
2023/06/10 15:03:07.729, True, 0.674, 0.154040
2023/06/10 15:03:08.233, True, 0.663, 0.151827
2023/06/10 15:03:08.737, True, 0.663, 0.152285
2023/06/10 15:03:09.241, True, 0.996, 0.150072
2023/06/10 15:03:09.737, True, 0.673, 0.152438
2023/06/10 15:03:10.241, True, 0.663, 0.152056
2023/06/10 15:03:10.745, True, 0.663, 0.152438
2023/06/10 15:03:11.241, True, 0.674, 0.153048
2023/06/10 15:03:11.744, True, 0.663, 0.151369
2023/06/10 15:03:12.249, True, 0.995, 0.152285
2023/06/10 15:03:12.745, True, 0.674, 0.153124
2023/06/10 15:03:13.249, True, 0.663, 0.151751
2023/06/10 15:03:13.753, True, 0.663, 0.149310
2023/06/10 15:03:14.249, True, 1.011, 0.153124
2023/06/10 15:03:14.753, True, 0.663, 0.151064
2023/06/10 15:03:15.256, True, 0.663, 0.151141
2023/06/10 15:03:15.753, True, 0.674, 0.152743
2023/06/10 15:03:16.257, True, 0.663, 0.149157
2023/06/10 15:03:16.761, True, 0.663, 0.152743
2023/06/10 15:03:17.257, True, 1.011, 0.152590
2023/06/10 15:03:17.761, True, 0.664, 0.153658
2023/06/10 15:03:18.265, True, 0.663, 0.151598
2023/06/10 15:03:18.761, True, 0.674, 0.153658
2023/06/10 15:03:19.265, True, 0.664, 0.153658
2023/06/10 15:03:19.769, True, 0.663, 0.151064
2023/06/10 15:03:20.265, True, 1.013, 0.150454
2023/06/10 15:03:20.769, True, 0.662, 0.152361
2023/06/10 15:03:21.273, True, 0.663, 0.150912
2023/06/10 15:03:21.777, True, 0.663, 0.152438
2023/06/10 15:03:22.273, True, 0.675, 0.151827
2023/06/10 15:03:22.777, True, 0.662, 0.151827
2023/06/10 15:03:23.281, True, 0.663, 0.151598
2023/06/10 15:03:23.777, True, 0.674, 0.152132
2023/06/10 15:03:24.281, True, 0.664, 0.152819
2023/06/10 15:03:24.777, True, 0.673, 0.150683
2023/06/10 15:03:25.281, True, 0.663, 0.150835
2023/06/10 15:03:25.784, True, 0.664, 0.150835
2023/06/10 15:03:26.281, True, 1.009, 0.153887
2023/06/10 15:03:26.785, True, 0.663, 0.151598
2023/06/10 15:03:27.289, True, 0.664, 0.152590
2023/06/10 15:03:27.785, True, 0.673, 0.152209
2023/06/10 15:03:28.289, True, 0.663, 0.149157
2023/06/10 15:03:28.793, True, 0.995, 0.151064
2023/06/10 15:03:29.289, True, 0.674, 0.151141
2023/06/10 15:03:29.793, True, 0.663, 0.153353
2023/06/10 15:03:30.297, True, 0.663, 0.151904
2023/06/10 15:03:30.793, True, 0.674, 0.152209
2023/06/10 15:03:31.297, True, 0.995, 0.152361
2023/06/10 15:03:31.801, True, 0.664, 0.150072
2023/06/10 15:03:32.305, True, 0.663, 0.151369
2023/06/10 15:03:32.801, True, 0.674, 0.151980
2023/06/10 15:03:33.305, True, 0.663, 0.151369
2023/06/10 15:03:33.809, True, 0.663, 0.149386
2023/06/10 15:03:34.305, True, 0.675, 0.151446
2023/06/10 15:03:34.809, True, 0.663, 0.151446
2023/06/10 15:03:35.305, True, 0.674, 0.152514
2023/06/10 15:03:35.809, True, 0.994, 0.150759
2023/06/10 15:03:36.313, True, 0.663, 0.150835
2023/06/10 15:03:36.809, True, 0.674, 0.152132
2023/06/10 15:03:37.313, True, 0.663, 0.150607
2023/06/10 15:03:37.817, True, 0.664, 0.150835
2023/06/10 15:03:38.313, True, 0.674, 0.153048
2023/06/10 15:03:38.816, True, 0.662, 0.151522
2023/06/10 15:03:39.321, True, 0.664, 0.151675
2023/06/10 15:03:39.816, True, 0.674, 0.152285
2023/06/10 15:03:40.320, True, 0.993, 0.152285
2023/06/10 15:03:40.825, True, 0.664, 0.150149
2023/06/10 15:03:41.320, True, 0.674, 0.150912
2023/06/10 15:03:41.825, True, 0.662, 0.150759
2023/06/10 15:03:42.329, True, 0.664, 0.149004
2023/06/10 15:03:42.825, True, 0.673, 0.149157
2023/06/10 15:03:43.328, True, 0.663, 0.152132
2023/06/10 15:03:43.832, True, 0.664, 0.150988
2023/06/10 15:03:44.329, True, 1.011, 0.152895
2023/06/10 15:03:44.833, True, 0.662, 0.154040
2023/06/10 15:03:45.337, True, 0.663, 0.152209
2023/06/10 15:03:45.833, True, 0.675, 0.153506
2023/06/10 15:03:46.337, True, 0.995, 0.150683
2023/06/10 15:03:46.841, True, 0.663, 0.152361
2023/06/10 15:03:47.337, True, 0.674, 0.150378
2023/06/10 15:03:47.841, True, 0.663, 0.150988
2023/06/10 15:03:48.345, True, 0.663, 0.152209
2023/06/10 15:03:48.841, True, 0.674, 0.153277
2023/06/10 15:03:49.345, True, 0.663, 0.152056
2023/06/10 15:03:49.849, True, 0.995, 0.150683
2023/06/10 15:03:50.353, True, 0.663, 0.152590
2023/06/10 15:03:50.849, True, 0.674, 0.149462
2023/06/10 15:03:51.353, True, 0.664, 0.151980
2023/06/10 15:03:51.849, True, 0.674, 0.151141
2023/06/10 15:03:52.353, True, 0.663, 0.150530
2023/06/10 15:03:52.857, True, 0.663, 0.153277
2023/06/10 15:03:53.353, True, 0.674, 0.151751
2023/06/10 15:03:53.857, True, 0.663, 0.152972
2023/06/10 15:03:54.361, True, 0.995, 0.149920
2023/06/10 15:03:54.865, True, 0.663, 0.151980
2023/06/10 15:03:55.361, True, 0.674, 0.153048
2023/06/10 15:03:55.865, True, 0.663, 0.150759
2023/06/10 15:03:56.369, True, 0.664, 0.149844
2023/06/10 15:03:56.865, True, 1.011, 0.151217
2023/06/10 15:03:57.368, True, 0.663, 0.151751
2023/06/10 15:03:57.873, True, 0.663, 0.149691
2023/06/10 15:03:58.369, True, 0.674, 0.150301
2023/06/10 15:03:58.873, True, 0.663, 0.152209
2023/06/10 15:03:59.369, True, 0.674, 0.150912
2023/06/10 15:03:59.873, True, 0.995, 0.151446
2023/06/10 15:04:00.377, True, 0.663, 0.151369
2023/06/10 15:04:00.873, True, 0.674, 0.151369
2023/06/10 15:04:01.377, True, 0.663, 0.149767
2023/06/10 15:04:01.881, True, 0.995, 0.152743
2023/06/10 15:04:02.377, True, 0.674, 0.151446
2023/06/10 15:04:02.881, True, 0.663, 0.149767
2023/06/10 15:04:03.385, True, 0.663, 0.148852
2023/06/10 15:04:03.881, True, 0.674, 0.151598
2023/06/10 15:04:04.385, True, 0.663, 0.149462
2023/06/10 15:04:04.889, True, 0.663, 0.149996
2023/06/10 15:04:05.385, True, 0.674, 0.149691
2023/06/10 15:04:05.889, True, 0.996, 0.151598
2023/06/10 15:04:06.385, True, 0.674, 0.151217
2023/06/10 15:04:06.889, True, 0.663, 0.151675
2023/06/10 15:04:07.393, True, 0.663, 0.149691
2023/06/10 15:04:07.889, True, 0.674, 0.150301
2023/06/10 15:04:08.393, True, 0.663, 0.151293
2023/06/10 15:04:08.889, True, 1.011, 0.149920
2023/06/10 15:04:09.393, True, 0.663, 0.150912
2023/06/10 15:04:09.897, True, 0.663, 0.151598
2023/06/10 15:04:10.393, True, 0.674, 0.150072
2023/06/10 15:04:10.897, True, 0.663, 0.150454
2023/06/10 15:04:11.401, True, 0.663, 0.150607
2023/06/10 15:04:11.897, True, 0.674, 0.150378
2023/06/10 15:04:12.401, True, 0.663, 0.149615
2023/06/10 15:04:12.905, True, 0.995, 0.150988